Hourly Data Report for October 29, 2015

All times are specified in Local Standard Time (LST). Add 1 hour to adjust for Daylight Saving Time where and when it is observed.

RESOLUTE BAY A
NUNAVUT

74°43'01.000" N
94°58'10.000" W
67.70 m
2403498
71924
YRB

Download Data

Hourly Data (October 2015)
Hourly Data Report for October 29, 2015
Temp Definition
°C
Dew Point Temp Definition
°C
Rel Hum Definition
%
Wind Dir Definition
10's deg

Wind Spd Definition
km/h
Visibility Definition
km
Stn Press Definition
kPa
Hmdx Definition


Wind Chill Definition


Weather Definition


TIME
00:00 Legend Double Dagger -18.2 -20.4 83 36 32 24.1 100.50   -31 Ice Crystals
01:00 Legend Double Dagger -17.6 -19.7 84 34 30 24.1 100.46   -29 Ice Crystals
02:00 Legend Double Dagger -16.4 -18.5 84 33 39 24.1 100.45   -29 Snow
03:00 Legend Double Dagger -18.0 -20.1 84 34 29 8.1 100.47   -30 Mainly Clear
04:00 Legend Double Dagger -18.4 -20.9 81 34 33 24.1 100.50   -31 Ice Crystals
05:00 Legend Double Dagger -19.0 -21.4 82 34 23 24.1 100.49   -30 Ice Crystals
06:00 Legend Double Dagger -19.1 -21.4 82 35 33 24.1 100.46   -32 Ice Crystals
07:00 Legend Double Dagger -18.8 -21.3 81 36 24 24.1 100.46   -30 Ice Crystals
08:00 Legend Double Dagger -20.3 -22.8 81 3 30 24.1 100.44   -33 LegendNANA
09:00 Legend Double Dagger -19.5 -22.0 81 2 37 24.1 100.40   -33 Mainly Clear
10:00 Legend Double Dagger -18.4 -21.1 80 2 40 24.1 100.40   -32 LegendNANA
11:00 Legend Double Dagger -18.7 -21.5 79 1 41 24.1 100.40   -33 LegendNANA
12:00 Legend Double Dagger -20.1 -22.7 80 34 32 24.1 100.45   -33 Mainly Clear
13:00 Legend Double Dagger -18.7 -21.1 82 36 33 12.9 100.48   -31 LegendNANA
14:00 Legend Double Dagger -18.4 -20.8 82 36 35 0.8 100.50   -31 Freezing Fog
15:00 Legend Double Dagger -18.6 -20.8 83 36 39 0.8 100.45   -32 Blowing Snow,Freezing Fog
16:00 Legend Double Dagger -20.2 -22.5 82 34 36 0.8 100.48   -34 Freezing Fog
17:00 Legend Double Dagger -21.2 -23.7 81 34 40 12.9 100.41   -36 Ice Crystals
18:00 Legend Double Dagger -20.8 -23.4 80 34 44 12.9 100.35   -36 Cloudy
19:00 Legend Double Dagger -21.1 -23.8 79 2 26 12.9 100.34   -33 LegendNANA
20:00 Legend Double Dagger -19.4 -21.9 81 31 15 24.1 100.30   -28 Snow
21:00 Legend Double Dagger -18.5 -20.7 83 34 22 16.1 100.23   -29 Snow
22:00 Legend Double Dagger -18.5 -20.7 83 34 22 16.1 100.19   -29 Snow
23:00 Legend Double Dagger -18.3 -20.7 82 33 31 24.1 100.15   -31 Ice Crystals

Notes on Data Quality.

Legend

  • E = Estimated
  • M = Missing
  • NA = Not Available
  • ‡ = Partner data that is not subject to review by the National Climate Archives
Date modified: